Flag for Poland Weather past 2 weeks in Katowice, Poland

Now
37 °F

Partly sunny.


Feels Like: 29 °F
Forecast: 37 / 45 °F
Wind: 13 mph from West

Location: Katowice Airport

Current Time: Dec 21, 2014 at 3:55:43 PM

Latest Report: Dec 21, 2014 at 3:00 PM


Visibility: N/A

Pressure: 30.18 "Hg

Humidity: 81%

Dew point: 32 °F

Location of KatowiceLocation

Historic Weather in Katowice — Graph

°F

Katowice temperature yesterday

Maximum temperature yesterday: 45 °F (at 12:00 AM)
Minimum temperature yesterday: 37 °F (at 7:30 PM)
Average temperature yesterday: 41 °F

Past Weeks' High & Low Weather Summary

 TemperatureHumidityPressure
High52 °F (Dec 19, 11:30 AM)100% (Dec 6, 4:00 PM)30.39 "Hg (Dec 6, 4:00 PM)
Low16 °F (Dec 10, 7:00 AM)46% (Dec 12, 8:00 PM)29.71 "Hg (Dec 12, 5:30 PM)
Average39 °F84%29.97 "Hg
* Reported Dec 6 2:00 PM — Dec 21 2:30 PM, Katowice, Weather by CustomWeather, © 2014

Note: Actual official high and low records may vary slightly from our data, if they occured in-between our weather recording intervals... More about our weather records

Advertising

Katowice weather history for previous 24 hours

 ConditionsComfort  
Time TempWeatherWind HumidityBarometerVisibility
2:30 PM
Dec 21
37 °FSprinkles. Broken clouds.16 mph87%30.18 "HgN/A
2:00 PM37 °FPartly sunny.12 mph87%30.18 "HgN/A
1:30 PM37 °FSprinkles. Broken clouds.9 mph87%30.18 "HgN/A
1:00 PM37 °FSprinkles. Broken clouds.12 mph87%30.15 "Hg4 mi
12:30 PM37 °FSprinkles. Broken clouds.14 mph87%30.15 "Hg5 mi
12:00 PM37 °FSprinkles. Broken clouds.16 mph93%30.15 "Hg5 mi
11:30 AM37 °FSprinkles. Broken clouds.13 mph93%30.15 "Hg5 mi
11:00 AM36 °FSprinkles. Broken clouds.9 mph93%30.12 "Hg4 mi
10:30 AM34 °FSprinkles. Broken clouds.7 mph93%30.12 "HgN/A
10:00 AM32 °FSnow flurries. Broken clouds.13 mph100%30.12 "Hg1 mi
9:30 AM34 °FSnow flurries. Broken clouds.18 mph93%30.09 "Hg1 mi
9:00 AM36 °FSprinkles. Broken clouds.17 mph93%30.07 "HgN/A
8:30 AM36 °FSprinkles. Broken clouds.21 mph93%30.07 "HgN/A
8:00 AM36 °FSprinkles. Broken clouds.20 mph87%30.04 "HgN/A
7:30 AM36 °FSprinkles. Partly cloudy.20 mph93%30.04 "HgN/A
7:00 AM36 °FSprinkles. Partly cloudy.18 mph93%30.01 "HgN/A
6:30 AM37 °FSprinkles. Partly cloudy.23 mph87%30.01 "HgN/A
6:00 AM36 °FSprinkles. Partly cloudy.16 mph93%29.98 "HgN/A
5:30 AM36 °FSprinkles. Partly cloudy.18 mph93%29.95 "HgN/A
5:00 AM36 °FLight rain. Partly cloudy.21 mph93%29.95 "HgN/A
4:30 AM36 °FPartly cloudy.22 mph93%29.95 "HgN/A
4:00 AM36 °FSprinkles. Partly cloudy.20 mph93%29.92 "Hg4 mi
3:30 AM36 °FSnow flurries. Passing clouds.24 mph87%29.92 "Hg3 mi
3:00 AM36 °FPassing clouds.24 mph87%29.89 "HgN/A
2:30 AM36 °FLight rain. Passing clouds.22 mph87%29.89 "HgN/A
2:00 AM36 °FLight rain. Passing clouds.23 mph87%29.89 "HgN/A
1:30 AM37 °FLight rain. Partly cloudy.22 mph87%29.86 "HgN/A
1:00 AM37 °FLight rain. Partly cloudy.18 mph87%29.86 "HgN/A
12:30 AM37 °FLight rain. Passing clouds.18 mph87%29.86 "HgN/A
12:00 AM37 °FPassing clouds.21 mph87%29.86 "HgN/A
11:30 PM
Dec 20
37 °FPassing clouds.18 mph93%29.86 "HgN/A
11:00 PM37 °FPassing clouds.16 mph93%29.86 "HgN/A
10:30 PM37 °FLight rain. Passing clouds.16 mph87%29.86 "HgN/A
10:00 PM37 °FLight rain. Passing clouds.15 mph87%29.83 "HgN/A
9:30 PM37 °FLight rain. Passing clouds.20 mph87%29.83 "Hg4 mi
9:00 PM37 °FLight rain. Partly cloudy.17 mph87%29.83 "Hg4 mi
8:30 PM37 °FLight rain. Passing clouds.18 mph87%29.83 "Hg4 mi
8:00 PM37 °FLight rain. Passing clouds.16 mph87%29.83 "Hg4 mi
7:30 PM37 °FLight rain. Passing clouds.18 mph87%29.83 "HgN/A
7:00 PM39 °FSprinkles. Passing clouds.23 mph75%29.83 "HgN/A
6:00 PM41 °FLight rain. Passing clouds.18 mph70%29.86 "HgN/A
5:30 PM41 °FClear.18 mph66%29.86 "Hg10 mi
5:00 PM41 °FClear.16 mph66%29.86 "Hg10 mi
4:30 PM41 °FClear.20 mph66%29.86 "Hg10 mi
4:00 PM41 °FClear.17 mph66%29.89 "Hg10 mi
3:30 PM41 °FPassing clouds.14 mph66%29.89 "HgN/A
3:00 PM41 °FSunny.14 mph66%29.92 "Hg10 mi
Weather by CustomWeather, © 2014

See weather overviewHow to use our weather pages